User: anonymous   Login
Location: Newark
(50.0306°N, 2.3272°E)
Time: 19:44:07
(UTC+00:00)
Language:

Courier 1B Rocket - Orbit

View from above orbital plane
View from above orbital plane
View from above satellite
View from above satellite

Ground track
Ground track

The orbit data is extracted from the following two-line orbital elements,

1    59U 60013B   19341.52491386  .00000087  00000-0 -18265-6 0  9994
2    59  28.2467 129.2276 0189104 106.8679 255.2693 13.52972260920969
Epoch (UTC): 07 December 2019 12:35:52
Eccentricity: 0.0189104
inclination: 28.2467°
perigee height: 920 km
apogee height: 1202 km
right ascension of ascending node: 129.2276°
argument of perigee: 106.8679°
revolutions per day: 13.52972260
mean anomaly at epoch: 255.2693°
orbit number at epoch: 92096

The dashed part of the orbit path shows where the satellite is in the earth's shadow,  

DLR